COSMOS 2436 (GLONASS)

Satellite information

Favourite Embed

Satellite Type and Status

PAYLOADIN ORBIT

Key statistics

Satellite COSMOS 2436 (GLONASS) at a glance.

Uptime

6518

Days in orbit

Revolutions

≈ 2.1

Per day

Orbit

MEO

Medium Earth Orbit

Inclination

64.3

Latest

Satellite identification and parameters

Extended collection of information and parameters for COSMOS 2436 (GLONASS).

Object identification

Identified? True

Debris? False

Object name: COSMOS 2436 (GLONASS)

International designator: 2007-065C

Object number (NORAD): 32395

Object ID (CCSDS): 32395

Country: COMMONWEALTH OF INDEPENDENT STATES (CIS)

Current information (Y/N): Y

RCS size: LARGE

Orbital parameters

Period: 675.739 minutes

Inclination: 64.3232 deg

SMA: 25508.183 km

Apoapsis: 19174.405 km

Periapsis: 19085.692 km

RAAN: 199.8217 deg

Eccentricy: 0.00173891

Argument of periapsis: 4.2939 deg

Mean anomaly: 178.2444 deg

Mean motion: 2.13100011 rev/day

Mean motion (dot): 0.00000017 rev/day2

B* drag term: 0.0 1/REarth

Two-line elements (TLE)

Creation date: Oct. 28, 2025, 2:18 a.m.

Reference frame: TEME

Reference center: EARTH

Epoch: Oct. 27, 2025, 8:08 p.m. UTC

TLE line 0: 0 COSMOS 2436 (GLONASS)

TLE line 1: 1 32395U 07065C 25300.83942223 .00000017 00000-0 00000-0 0 9991

TLE line 2: 2 32395 64.3232 199.8217 0017389 4.2939 178.2444 2.13100011138771

Live tracking on map

Real-time ground track for satellite COSMOS 2436 (GLONASS).

In-orbit conjunctions

There are no conjunctions computed for COSMOS 2436 (GLONASS), at the moment. Check back to stay up to date, as we update our databases every day.

Go to all conjunctions

Associated space launch

GLONASS navigation satellites

COSMOS 2436 (GLONASS) was lifted into orbit during the mission ‘Proton-M | Uragan-M 12 to 14’, on board a Proton-M space rocket.

The launch took place on Dec. 25, 2007, 7:32 p.m. from 81/24 (81P).

For more information about the launch, click the button.

Launch to space Proton-M | Uragan-M 12 to 14
Proton-M | Uragan-M 12 to 14

Agency: N/A

Status: Launch Successful

Launch date: Dec. 25, 2007, 7:32 p.m. UTC

Rocket: Proton-M

Launch pad: 81/24 (81P)

Location: Baikonur Cosmodrome, Republic of Kazakhstan

...

Latest news about this satellite

There are no fresh news available about this satellite. Check back as we update our databases every day.


Newsletter sign-up

Weekly statistics, charts and insights to help you stay on top of the space industry.